Weather History for Petersburg, WV

Change the Weather History Date:

Wednesday, May 7, 2014

  Actual Average (KEKN) Record (KEKN)
Temperature  
Mean Temperature 64 °F 56 °F  
Max Temperature 81 °F 69 °F 85 °F (1979)
Min Temperature 48 °F 43 °F 20 °F (1970)
Degree Days  
Heating Degree Days 0 10  
Month to date heating degree days 73  
Since 1 July heating degree days 5636  
Cooling Degree Days 0 0  
Month to date cooling degree days 0  
Year to date cooling degree days 3  
Growing Degree Days 14 (Base 50)    
Moisture  
Dew Point 52 °F    
Average Humidity 73    
Maximum Humidity 92    
Minimum Humidity 45    
Precipitation  
Precipitation 0.02 in 0.17 in 2.58 in (1994)
Month to date precipitation 1.07  
Year to date precipitation 15.16  
Snow  
Snow 0.00 in - - ()
Month to date snowfall  
Since 1 September snowfall  
Snow Depth -    
Sea Level Pressure  
Sea Level Pressure 30.12 in    
Wind  
Wind Speed 2 mph (North)    
Max Wind Speed 12 mph    
Max Gust Speed 18 mph    
Visibility 10 miles    
Events Rain , Thunderstorm    
T = Trace of Precipitation, MM = Missing Value Source: NWS Daily Summary

Daily Weather History Graph

Daily Weather History Graph

Search for Another Location

Airport:

Trip Planner

Search our weather history database for the weather conditions in past years. The results will help you decide how hot, cold, wet, or windy it might be!

Date:

Astronomy

May. 07, 2014 Rise Set
Actual Time 6:11 AM EDT 8:15 PM EDT
Civil Twilight 5:42 AM EDT 8:44 PM EDT
Nautical Twilight 5:06 AM EDT 9:20 PM EDT
Astronomical Twilight 4:27 AM EDT 9:59 PM EDT
Moon 1:21 PM EDT (5/7) 2:06 AM EDT (5/7)
Length of Visible Light 15h 02m
Length of Day
14h 03m
First Quarter, 55% of the Moon is Illuminated
May 7
First Quarter
May 14
Full
May 21
Last Quarter
May 28
New
Jun 5
First Quarter

Hourly Weather History & Observations

Time (EDT) Temp. Heat Index Dew Point Humidity Pressure Visibility Wind Dir Wind Speed Gust Speed Precip Events Conditions
12:15 AM 55.2 °F - 50.0 °F 83% 30.07 in 10.0 mi Calm Calm - N/A   Clear
12:35 AM 53.6 °F - 49.3 °F 85% 30.07 in 10.0 mi Calm Calm - N/A   Clear
12:55 AM 52.7 °F - 48.4 °F 85% 30.08 in 10.0 mi Calm Calm - N/A   Clear
1:15 AM 51.6 °F - 48.2 °F 88% 30.09 in 10.0 mi Calm Calm - N/A   Clear
1:35 AM 51.4 °F - 47.3 °F 86% 30.09 in 10.0 mi Calm Calm - N/A   Clear
1:55 AM 50.9 °F - 47.3 °F 87% 30.07 in 10.0 mi Calm Calm - N/A   Clear
2:15 AM 49.3 °F - 46.4 °F 90% 30.07 in 10.0 mi Calm Calm - N/A   Clear
2:35 AM 49.8 °F - 47.1 °F 90% 30.08 in 10.0 mi Calm Calm - N/A   Clear
2:55 AM 49.1 °F - 46.0 °F 89% 30.09 in 10.0 mi Calm Calm - N/A   Scattered Clouds
3:15 AM 49.1 °F - 46.4 °F 90% 30.09 in 10.0 mi Calm Calm - N/A   Mostly Cloudy
3:35 AM 48.6 °F - 46.2 °F 92% 30.09 in 10.0 mi Calm Calm - N/A   Mostly Cloudy
3:55 AM 49.3 °F - 46.6 °F 90% 30.10 in 10.0 mi Calm Calm - N/A   Mostly Cloudy
4:15 AM 49.3 °F - 46.6 °F 90% 30.10 in 10.0 mi Calm Calm - N/A   Overcast
4:35 AM 50.5 °F - 47.7 °F 90% 30.11 in 10.0 mi Calm Calm - N/A   Overcast
4:55 AM 51.1 °F - 48.4 °F 90% 30.12 in 10.0 mi Calm Calm - N/A   Overcast
5:15 AM 52.0 °F - 49.3 °F 90% 30.12 in 10.0 mi Calm Calm - N/A   Overcast
5:35 AM 52.5 °F - 49.5 °F 89% 30.13 in 10.0 mi Calm Calm - N/A   Overcast
5:55 AM 52.7 °F - 49.8 °F 90% 30.13 in 10.0 mi Calm Calm - N/A   Overcast
6:15 AM 53.4 °F - 50.0 °F 88% 30.14 in 10.0 mi Calm Calm - N/A   Overcast
6:35 AM 54.1 °F - 49.6 °F 85% 30.14 in 10.0 mi Calm Calm - N/A   Overcast
6:55 AM 54.3 °F - 50.4 °F 86% 30.15 in 10.0 mi Calm Calm - N/A Rain Light Rain
7:15 AM 55.2 °F - 50.7 °F 85% 30.16 in 10.0 mi Calm Calm - N/A Rain Light Rain
7:35 AM 54.9 °F - 51.1 °F 87% 30.16 in 5.0 mi Calm Calm - 0.02 in Rain , Thunderstorm Heavy Thunderstorms and Rain
7:55 AM 55.6 °F - 51.8 °F 87% 30.17 in 10.0 mi Calm Calm - 0.02 in   Overcast
8:15 AM 56.7 °F - 52.9 °F 87% 30.17 in 10.0 mi Calm Calm - N/A Rain Light Rain
8:35 AM 56.7 °F - 53.2 °F 88% 30.17 in 10.0 mi Calm Calm - N/A   Overcast
8:55 AM 57.2 °F - 52.7 °F 85% 30.17 in 10.0 mi Calm Calm - N/A Thunderstorm Overcast
9:15 AM 59.0 °F - 51.8 °F 77% 30.16 in 10.0 mi Calm Calm - N/A Thunderstorm Overcast
9:35 AM 59.5 °F - 50.4 °F 72% 30.15 in 10.0 mi Calm Calm - N/A Thunderstorm Mostly Cloudy
9:55 AM 59.9 °F - 50.7 °F 72% 30.16 in 10.0 mi Calm Calm - N/A Thunderstorm Scattered Clouds
10:15 AM 59.9 °F - 51.3 °F 73% 30.18 in 10.0 mi North 4.6 mph - N/A Thunderstorm Mostly Cloudy
10:35 AM 60.3 °F - 47.5 °F 63% 30.19 in 10.0 mi North 4.6 mph - N/A   Mostly Cloudy
10:55 AM 60.4 °F - 46.9 °F 61% 30.21 in 10.0 mi NNW 5.8 mph - N/A   Mostly Cloudy
11:15 AM 60.1 °F - 46.4 °F 61% 30.23 in 10.0 mi North 9.2 mph - N/A Thunderstorm Mostly Cloudy
11:35 AM 59.2 °F - 47.5 °F 65% 30.24 in 10.0 mi NNE 10.4 mph 17.3 mph N/A Thunderstorm Scattered Clouds
11:55 AM 59.4 °F - 48.2 °F 67% 30.23 in 10.0 mi NNE 8.1 mph 18.4 mph N/A   Scattered Clouds
12:15 PM 60.4 °F - 49.6 °F 68% 30.22 in 10.0 mi NW 5.8 mph - N/A   Clear
12:35 PM 61.7 °F - 49.3 °F 64% 30.20 in 10.0 mi Calm Calm - N/A   Scattered Clouds
12:55 PM 62.6 °F - 50.4 °F 64% 30.19 in 10.0 mi Calm Calm - N/A   Clear
1:15 PM 63.9 °F - 51.1 °F 63% 30.17 in 10.0 mi Calm Calm - N/A   Clear
1:35 PM 64.9 °F - 52.0 °F 63% 30.17 in 10.0 mi Calm Calm - N/A   Clear
1:55 PM 67.1 °F - 54.0 °F 63% 30.15 in 10.0 mi Calm Calm - N/A   Clear
2:15 PM 68.0 °F - 53.2 °F 59% 30.14 in 10.0 mi Calm Calm - N/A   Clear
2:35 PM 70.2 °F - 54.1 °F 57% 30.13 in 10.0 mi Calm Calm - N/A   Clear
2:55 PM 71.1 °F - 54.3 °F 55% 30.12 in 10.0 mi Calm Calm - N/A   Clear
3:15 PM 72.5 °F - 54.7 °F 53% 30.10 in 10.0 mi Calm Calm - N/A   Clear
3:35 PM 74.5 °F - 55.0 °F 51% 30.09 in 10.0 mi Calm Calm - N/A   Clear
3:55 PM 76.1 °F - 56.8 °F 51% 30.08 in 10.0 mi Calm Calm - N/A   Clear
4:15 PM 76.3 °F - 55.9 °F 49% 30.07 in 10.0 mi Calm Calm - N/A   Clear
4:55 PM 80.2 °F 80.5 °F 57.4 °F 45% 30.06 in 10.0 mi ESE 3.5 mph - N/A   Clear
5:15 PM 80.1 °F 80.5 °F 57.6 °F 46% 30.05 in 10.0 mi ESE 4.6 mph - N/A   Clear
5:35 PM 81.0 °F 81.1 °F 57.7 °F 45% 30.05 in 10.0 mi ENE 5.8 mph - N/A   Clear
5:55 PM 80.2 °F 80.6 °F 57.7 °F 46% 30.05 in 10.0 mi East 5.8 mph - N/A   Clear
6:15 PM 80.4 °F 80.7 °F 57.6 °F 45% 30.04 in 10.0 mi NE 4.6 mph - N/A   Clear
6:35 PM 77.4 °F - 59.0 °F 53% 30.05 in 10.0 mi North 11.5 mph - N/A   Clear
6:55 PM 73.8 °F - 58.5 °F 59% 30.06 in 10.0 mi North 10.4 mph - N/A   Clear
7:15 PM 72.5 °F - 58.3 °F 61% 30.07 in 10.0 mi North 10.4 mph - N/A   Clear
7:35 PM 70.9 °F - 58.1 °F 64% 30.07 in 10.0 mi North 8.1 mph - N/A   Clear
7:55 PM 69.8 °F - 57.7 °F 65% 30.09 in 10.0 mi North 10.4 mph - N/A   Clear
8:15 PM 68.4 °F - 57.7 °F 69% 30.10 in 10.0 mi NNW 10.4 mph - N/A   Clear
8:35 PM 67.3 °F - 57.4 °F 70% 30.11 in 10.0 mi NW 6.9 mph - N/A   Clear
8:55 PM 66.7 °F - 57.2 °F 71% 30.12 in 10.0 mi NW 4.6 mph - N/A   Clear
9:15 PM 65.3 °F - 56.5 °F 73% 30.13 in 10.0 mi NW 6.9 mph - N/A   Clear
9:35 PM 64.2 °F - 56.1 °F 75% 30.13 in 10.0 mi NW 6.9 mph - N/A   Clear
9:55 PM 63.0 °F - 55.6 °F 77% 30.14 in 10.0 mi NW 4.6 mph - N/A   Clear
10:15 PM 61.9 °F - 55.0 °F 78% 30.14 in 10.0 mi NNW 4.6 mph - N/A   Clear
10:35 PM 61.0 °F - 54.7 °F 80% 30.14 in 10.0 mi NW 5.8 mph - N/A   Clear
10:50 PM 60.8 °F - 54.5 °F 80% 30.14 in 10.0 mi NNW 5.8 mph - N/A   Clear
11:15 PM 59.9 °F - 54.1 °F 81% 30.13 in 10.0 mi NNW 4.6 mph - N/A   Clear
11:35 PM 58.3 °F - 54.0 °F 86% 30.14 in 10.0 mi West 4.6 mph - N/A   Clear
11:55 PM 58.3 °F - 54.5 °F 87% 30.14 in 10.0 mi WNW 3.5 mph - N/A   Clear